Location: Canazei
(46.4667°N, 11.7667°E)
Time: 03:43:42
(UTC+00:00)

Cosmos 2278 Rocket - Pass Details

Date: 21 April 2021
Orbit: 842 x 844 km, 71.0° (Epoch: 10 May)

Event Time Altitude Azimuth Distance (km) Brightness Sun altitude
Exits shadow 03:11:54 - 280° (W) 2,851 4.5 -10.8°
Reaches altitude 10° 03:13:43 10° 295° (WNW) 2,468 4.3 -10.5°
Maximum altitude 03:16:27 14° 324° (NW) 2,226 4.3 -10.1°
Drops below altitude 10° 03:19:12 10° 353° (N) 2,473 4.9 -9.7°
Sets 03:23:06 0° 19° (NNE) 3,411 6.2 -9.1°
